[[{"header":{"parameterUnit":"m.s-1","parameterCategory":1,"la1":30.2991,"la2":30.254,"lo1":-89.0895,"lo2":-89.0444,"dy":0.0017,"dx":0.0017,"nx":28,"ny":28,"refTime":"2025-03-17T09:00:00:Z","depth":0,"parameterNumber":2,"parameterNumberName":"U-component_of_WINDS"},"data":[0,0,0,0,0,0,0,0,0,0,0,0,0,0,0,0,0,0,0,0,0,0,0,0,0,0,0,0,0,0,0,0,0,0,0,0,0,0,0,0,0,0,0,0,0,0,0,0,0,0,0,0,0,0,0,0,0,0,-2.7696,-2.7697,0,-2.7759,-2.7759,-2.776,-2.7761,-2.776,-2.7759,-2.7759,-2.7823,-2.7826,-2.7828,0,0,0,0,0,0,0,0,0,0,0,0,0,-2.7579,-2.7581,-2.7696,-2.7697,-2.7698,-2.7759,-2.7759,-2.776,-2.7761,-2.776,-2.7759,-2.7758,-2.7823,-2.7826,-2.7829,0,0,0,0,0,0,0,0,0,0,0,0,0,-2.7634,-2.7581,-2.7696,-2.7705,-2.7707,-2.7758,-2.776,-2.7761,-2.7761,-2.776,-2.7759,-2.7758,-2.7822,-2.7825,-2.7829,-2.7876,0,0,-2.784,-2.7842,0,0,0,0,0,0,0,0,-2.7631,-2.7639,-2.7703,-2.7705,-2.7706,-2.7751,-2.7742,-2.7799,-2.7762,-2.7741,-2.7759,-2.7757,-2.78,-2.7806,-2.782,-2.7879,-2.7881,-2.7841,-2.7843,-2.7844,-2.7845,0,0,0,0,0,0,0,-2.7627,-2.7636,-2.7721,-2.7704,-2.7706,-2.7707,-2.7714,-2.7753,-2.7776,-2.7742,-2.7742,-2.775,-2.7801,-2.7816,-2.7822,-2.7882,-2.784,-2.7844,-2.7846,-2.7847,-2.7984,-2.7985,0,0,0,0,0,0,-2.7621,-2.7633,-2.7719,-2.7723,-2.7665,-2.771,-2.7717,-2.7738,-2.7776,-2.7781,-2.7751,-2.775,-2.7811,-2.7817,-2.7824,-2.7881,-2.7844,-2.7848,-2.785,-2.7982,-2.7984,-2.7986,0,0,0,0,0,0,-2.7619,-2.7629,-2.7716,-2.7678,-2.7689,-2.7713,-2.7736,-2.774,-2.7755,-2.7782,-2.7787,-2.7762,-2.781,-2.7819,-2.7863,-2.7883,-2.785,-2.7853,-2.7981,-2.7983,-2.7985,-2.7996,0,0,0,0,0,0,-2.7615,-2.7628,-2.7645,-2.7678,-2.7691,-2.7754,-2.7737,-2.7742,-2.7761,-2.776,-2.7794,-2.7799,-2.781,-2.7857,-2.7867,-2.7888,-2.7856,-2.7979,-2.7982,-2.7984,-2.7994,-2.7998,-2.8002,0,0,0,0,0,-2.7611,-2.7646,-2.7646,-2.7657,-2.7713,-2.7755,-2.7762,-2.7774,-2.7763,-2.7781,-2.7799,-2.7798,-2.788,-2.7862,-2.7872,-2.7895,-2.7978,-2.7981,-2.7984,-2.7992,-2.7997,-2.8002,0,0,0,0,0,0,-2.7615,-2.765,-2.7651,-2.7698,-2.7723,-2.7755,-2.7778,-2.7779,-2.7809,-2.7807,-2.7821,-2.7828,-2.7872,-2.7888,-2.7868,-2.7943,-2.7928,-2.7933,-2.793,-2.7936,-2.794,-2.7934,-2.7859,0,0,0,0,0,-2.7621,-2.7652,-2.7681,-2.772,-2.7733,-2.7753,-2.7772,-2.7779,-2.7806,-2.7817,-2.7838,-2.7865,-2.7897,-2.7917,-2.7948,-2.7997,-2.8005,-2.8018,-2.8022,-2.8025,-2.8029,-2.8057,-2.8063,-2.7996,-2.7996,-2.7996,0,0,-2.7635,-2.7658,-2.7676,-2.7721,-2.7742,-2.7773,-2.7762,-2.7796,-2.782,-2.7822,-2.7865,-2.7882,-2.7913,-2.7959,-2.7981,-2.7974,-2.805,-2.8029,-2.8032,-2.8034,-2.8061,-2.8067,-2.8073,-2.7998,-2.7998,-2.7997,0,0,-2.7675,-2.7695,-2.7729,-2.7751,-2.7782,-2.7796,-2.7804,-2.7836,-2.7847,-2.7891,-2.7893,-2.7923,-2.7977,-2.7999,-2.8018,-2.8068,-2.8068,-2.8078,-2.8098,-2.8125,-2.813,-2.8135,-2.8153,-2.8159,-2.8082,-2.8082,-2.8082,0,-2.7687,-2.7734,-2.7747,-2.7781,-2.7801,-2.7805,-2.784,-2.786,-2.79,-2.7914,-2.7906,-2.7976,-2.7997,-2.8049,-2.8062,-2.8077,-2.8087,-2.8073,-2.8129,-2.8133,-2.8138,-2.8155,-2.8162,-2.8083,-2.8083,-2.8083,-2.8083,0,-2.7748,-2.7781,-2.7805,-2.7843,-2.7866,-2.7901,-2.7919,-2.7941,-2.7947,-2.7962,-2.8007,-2.8032,-2.8069,-2.8082,-2.8088,-2.8136,-2.8131,-2.8126,-2.811,-2.8145,-2.8161,-2.8168,-2.8085,-2.8084,-2.8084,-2.8084,0,0,-2.779,-2.7836,-2.7845,-2.7863,-2.7899,-2.7925,-2.796,-2.7996,-2.8014,-2.8043,-2.8072,-2.812,-2.8116,-2.8137,-2.8145,-2.8169,-2.8207,-2.8161,-2.8162,-2.8168,-2.8261,-2.8264,-2.8272,-2.8208,-2.821,-2.8211,-2.8259,0,-2.7833,-2.7895,-2.7908,-2.7962,-2.7993,-2.7998,-2.8029,-2.8055,-2.807,-2.8099,-2.8117,-2.815,-2.8142,-2.8155,-2.8179,-2.8197,-2.8226,-2.8194,-2.8236,-2.8238,-2.8227,-2.828,-2.8283,-2.8327,-2.8265,-2.8266,-2.8267,0,-2.7892,-2.7921,-2.7978,-2.801,-2.8024,-2.8051,-2.8085,-2.8113,-2.8143,-2.8153,-2.8177,-2.8184,-2.8221,-2.8206,-2.8258,-2.8236,-2.8255,-2.8267,-2.8269,-2.8272,-2.8253,-2.8284,-2.8341,-2.8347,-2.8277,-2.8276,-2.8276,0,-2.7916,-2.797,-2.8011,-2.8026,-2.8066,-2.8085,-2.8102,-2.8131,-2.8152,-2.8183,-2.8196,-2.8231,-2.825,-2.8277,-2.8293,-2.828,-2.8345,-2.833,-2.8354,-2.8353,-2.8366,-2.8364,-2.8425,-2.8379,-2.8379,-2.8379,-2.8379,0,-2.7963,-2.7997,-2.8023,-2.8048,-2.8087,-2.8103,-2.8141,-2.8158,-2.8184,-2.8213,-2.8221,-2.8248,-2.8269,-2.8299,-2.8312,-2.8354,-2.8362,-2.8372,-2.8374,-2.837,-2.8369,-2.8381,-2.8378,-2.8381,-2.838,-2.838,-2.838,0,-2.7996,-2.8015,-2.806,-2.8093,-2.8103,-2.813,-2.8159,-2.8184,-2.8201,-2.8237,-2.8247,-2.8273,-2.8309,-2.8328,-2.8374,-2.8383,-2.8429,-2.8431,-2.8419,-2.842,-2.8442,-2.844,-2.8513,-2.8523,-2.8471,-2.8471,-2.8471,0,-2.8024,-2.805,-2.8087,-2.8107,-2.8124,-2.8156,-2.8178,-2.8195,-2.8217,-2.8254,-2.8275,-2.8312,-2.8342,-2.84,-2.8423,-2.8458,-2.846,-2.8484,-2.8466,-2.8461,-2.846,-2.8458,-2.8461,-2.8486,-2.8487,-2.8487,-2.8488,0,-2.8071,-2.8079,-2.8109,-2.8144,-2.8169,-2.8197,-2.8224,-2.824,-2.8262,-2.8287,-2.8324,-2.8348,-2.8395,-2.8431,-2.8468,-2.8487,-2.8491,-2.8493,-2.8501,-2.8496,-2.8488,-2.8492,-2.8427,-2.8491,-2.8491,-2.8491,-2.849,-2.849,-2.8102,-2.8126,-2.8156,-2.819,-2.8212,-2.8238,-2.8263,-2.8283,-2.8314,-2.8353,-2.8362,-2.8401,-2.8432,-2.8482,-2.8502,-2.8534,-2.8529,-2.854,-2.8542,-2.8544,-2.8545,-2.8484,-2.8541,-2.8541,-2.8541,-2.8541,-2.854,0,-2.8149,-2.8169,-2.82,-2.8238,-2.8265,-2.8267,-2.8298,-2.832,-2.8355,-2.8383,-2.8413,-2.8456,-2.8492,-2.8518,-2.8555,-2.8575,-2.8578,-2.8584,-2.8582,-2.8587,-2.8547,-2.8537,-2.8581,-2.8581,-2.8581,-2.8581,-2.8581,-2.8581,-2.8177,-2.8218,-2.823,-2.8282,-2.8302,-2.834,-2.8357,-2.8381,-2.8404,-2.8452,-2.8481,-2.8498,-2.8526,-2.8565,-2.8599,-2.8606,-2.8619,-2.8624,-2.8632,-2.8594,-2.8589,-2.8585,-2.8576,-2.8627,-2.8627,-2.8668,-2.8669,-2.8669]},{"header":{"parameterUnit":"m.s-1","parameterCategory":1,"la1":30.2991,"la2":30.254,"lo1":-89.0895,"lo2":-89.0444,"dy":0.0017,"dx":0.0017,"nx":28,"ny":28,"refTime":"2025-03-17T09:00:00:Z","depth":0,"parameterNumber":3,"parameterNumberName":"V-component_of_WINDS"},"data":[0,0,0,0,0,0,0,0,0,0,0,0,0,0,0,0,0,0,0,0,0,0,0,0,0,0,0,0,0,0,0,0,0,0,0,0,0,0,0,0,0,0,0,0,0,0,0,0,0,0,0,0,0,0,0,0,0,0,5.7514,5.7515,0,5.7546,5.7546,5.7546,5.7543,5.7542,5.7542,5.7541,5.757,5.7572,5.7573,0,0,0,0,0,0,0,0,0,0,0,0,0,5.745,5.7452,5.7514,5.7515,5.7515,5.7546,5.7546,5.7546,5.7543,5.7542,5.7542,5.7541,5.757,5.7571,5.7573,0,0,0,0,0,0,0,0,0,0,0,0,0,5.7479,5.7452,5.7514,5.7517,5.7518,5.7546,5.7546,5.7547,5.7543,5.7542,5.7541,5.7541,5.757,5.7571,5.7573,5.7599,0,0,5.7579,5.758,0,0,0,0,0,0,0,0,5.7478,5.7482,5.7516,5.7517,5.7518,5.754,5.7534,5.7564,5.7543,5.7533,5.7541,5.754,5.7561,5.7563,5.757,5.7601,5.7602,5.7579,5.758,5.7581,5.7581,0,0,0,0,0,0,0,5.7476,5.748,5.7527,5.7517,5.7518,5.7516,5.752,5.754,5.7551,5.7534,5.7534,5.7538,5.7561,5.7569,5.7571,5.7602,5.7579,5.7581,5.7582,5.7582,5.7657,5.7658,0,0,0,0,0,0,5.7473,5.7479,5.7526,5.7528,5.7496,5.7518,5.7522,5.7533,5.755,5.7552,5.7538,5.7538,5.7566,5.7569,5.7572,5.7605,5.7581,5.7583,5.7584,5.7657,5.7658,5.7659,0,0,0,0,0,0,5.7472,5.7478,5.7524,5.7503,5.7509,5.752,5.7533,5.7534,5.7542,5.7554,5.7555,5.7545,5.7565,5.757,5.7593,5.7606,5.7583,5.7585,5.7656,5.7657,5.7658,5.7671,0,0,0,0,0,0,5.747,5.7477,5.7487,5.7504,5.751,5.7545,5.7534,5.7535,5.7546,5.7545,5.756,5.7562,5.7565,5.7591,5.7595,5.7608,5.7587,5.7654,5.7656,5.7658,5.7669,5.7672,5.7675,0,0,0,0,0,5.7468,5.7489,5.7488,5.7494,5.7523,5.7546,5.755,5.7554,5.7547,5.7557,5.7565,5.7561,5.7604,5.7593,5.7598,5.7612,5.7654,5.7656,5.7658,5.7668,5.7672,5.7675,0,0,0,0,0,0,5.7472,5.7491,5.749,5.7517,5.753,5.7545,5.7558,5.7558,5.7573,5.7571,5.7575,5.7579,5.7603,5.761,5.7597,5.7639,5.7628,5.7631,5.7634,5.7637,5.764,5.7638,5.7588,0,0,0,0,0,5.7476,5.7494,5.7509,5.7531,5.7538,5.7547,5.7557,5.756,5.7573,5.7578,5.7588,5.76,5.7617,5.7627,5.7643,5.767,5.7674,5.7682,5.7685,5.7688,5.769,5.7706,5.771,5.7665,5.7665,5.7665,0,0,5.7485,5.7497,5.7508,5.7532,5.7543,5.7561,5.7552,5.7571,5.7584,5.7581,5.7605,5.7612,5.7626,5.7652,5.7664,5.7659,5.7704,5.769,5.7692,5.7693,5.7709,5.7713,5.7717,5.7666,5.7666,5.7666,0,0,5.7509,5.752,5.7541,5.7552,5.7569,5.7576,5.7581,5.7597,5.7602,5.7626,5.7625,5.764,5.7668,5.7679,5.7688,5.772,5.7717,5.7724,5.7739,5.7755,5.7759,5.7762,5.7774,5.7778,5.7727,5.7727,5.7727,0,5.7517,5.7545,5.7551,5.7571,5.7582,5.7582,5.7603,5.7613,5.7634,5.7641,5.7635,5.7672,5.7681,5.7711,5.7719,5.7726,5.7732,5.7723,5.7758,5.7761,5.7764,5.7776,5.778,5.7728,5.7728,5.7728,5.7728,0,5.7555,5.7574,5.7588,5.7611,5.7623,5.7643,5.7652,5.7664,5.7666,5.7673,5.7698,5.771,5.7729,5.7736,5.7737,5.7766,5.7762,5.7757,5.7746,5.7769,5.778,5.7784,5.7729,5.7729,5.7729,5.7728,0,0,5.7581,5.7608,5.7613,5.7624,5.7644,5.7659,5.7679,5.7699,5.771,5.7724,5.7742,5.7767,5.7763,5.7773,5.7776,5.7789,5.7815,5.7783,5.7783,5.7789,5.7848,5.7852,5.7857,5.7814,5.7814,5.7815,5.7847,0,5.7609,5.7646,5.7653,5.7686,5.7704,5.7705,5.7723,5.7737,5.7745,5.7761,5.7769,5.7787,5.778,5.7787,5.78,5.7809,5.7827,5.7807,5.783,5.7831,5.7826,5.7863,5.7867,5.7897,5.7851,5.7852,5.7853,0,5.7645,5.7663,5.7698,5.7717,5.7725,5.7741,5.7761,5.7777,5.7793,5.7797,5.781,5.7812,5.7833,5.7821,5.7851,5.7837,5.7847,5.7853,5.7854,5.7857,5.7843,5.7867,5.7906,5.7911,5.7859,5.7859,5.7858,0,5.7663,5.7695,5.7721,5.773,5.7752,5.7764,5.7773,5.7789,5.7801,5.7818,5.7826,5.7844,5.7855,5.7869,5.7876,5.7866,5.7905,5.7894,5.791,5.791,5.7918,5.7917,5.796,5.7924,5.7924,5.7923,5.7923,0,5.7693,5.7714,5.7729,5.7745,5.7769,5.7777,5.7801,5.781,5.7824,5.7842,5.7843,5.7859,5.7867,5.7884,5.7889,5.7914,5.7918,5.7923,5.7924,5.7923,5.7922,5.7929,5.7928,5.7925,5.7924,5.7924,5.7924,0,5.7716,5.7727,5.7755,5.7775,5.778,5.7798,5.7814,5.783,5.7838,5.786,5.7866,5.7878,5.7899,5.7907,5.7932,5.7935,5.7964,5.7963,5.7959,5.7959,5.7975,5.7974,5.8024,5.8031,5.799,5.799,5.799,0,5.7734,5.7751,5.7774,5.7787,5.7797,5.7817,5.783,5.7839,5.7852,5.7873,5.7886,5.7907,5.7924,5.7957,5.7968,5.7987,5.7987,5.8003,5.799,5.7989,5.7988,5.7987,5.7989,5.8006,5.8006,5.8007,5.8007,0,5.7767,5.7772,5.7791,5.7813,5.7829,5.7846,5.7862,5.7872,5.7883,5.7898,5.792,5.7934,5.7961,5.7981,5.8002,5.8011,5.8011,5.8011,5.8016,5.8015,5.8013,5.8015,5.7966,5.801,5.801,5.8009,5.8009,5.8009,5.7789,5.7805,5.7824,5.7845,5.7859,5.7875,5.7891,5.7902,5.7921,5.7945,5.7948,5.7972,5.7989,5.8016,5.8027,5.8045,5.8041,5.8047,5.8049,5.8051,5.8053,5.801,5.8049,5.8048,5.8048,5.8048,5.8048,0,5.7822,5.7835,5.7855,5.7879,5.7897,5.7896,5.7915,5.7929,5.7951,5.7967,5.7985,5.8011,5.8032,5.8045,5.8066,5.8078,5.8079,5.8083,5.8083,5.8085,5.8055,5.8049,5.8083,5.8083,5.8083,5.8083,5.8083,5.8083,5.7841,5.7869,5.7876,5.7911,5.7923,5.7947,5.7958,5.7973,5.7986,5.8016,5.8034,5.8043,5.8058,5.8081,5.81,5.8103,5.8111,5.8116,5.8119,5.809,5.8087,5.8084,5.8078,5.8118,5.8118,5.8148,5.8148,5.8148]}]]